Regional Weather Roundup
Issued by NWS

Home | Current Version | Previous Version | Graphics & Text | Print | Product List | Glossary On
Versions: 1 2 3 4 5 6 7 8 9 10 11 12 13 14 15 16 17 18 19 20 21 22 23 24 25 26 27 28 29 30 31 32 33 34 35 36 37 38 39 40 41 42 43 44 45 46 47 48 49 50
000
ASUS45 KPSR 020310
RWRAZ

ARIZONA REGIONAL HOURLY WEATHER ROUNDUP
NATIONAL WEATHER SERVICE PHOENIX AZ
800 PM MST WED OCT 01 2014

NOTE: FAIR INDICATES FEW OR NO CLOUDS BELOW 12,000 FEET WITH NO
SIGNIFICANT WEATHER AND/OR OBSTRUCTIONS TO VISIBILITY.

AZZ001>003-036-020400-
NORTHWEST ARIZONA

CITY           SKY/WX    TMP DP  RH WIND       PRES   REMARKS
BULLHEAD CITY  CLEAR     84  27  12 NE16      29.86R
KINGMAN        CLEAR     66  31  27 NW7       30.01R
$$

AZZ004>008-015-016-018-020400-
NORTH CENTRAL ARIZONA

CITY           SKY/WX    TMP DP  RH WIND       PRES   REMARKS
GRAND CANYON   CLEAR     50  29  44 VRB3      30.13R
PRESCOTT       CLEAR     63  35  35 W8        30.04R
FLAGSTAFF      CLEAR     51  35  54 CALM      30.14R
PAYSON         CLEAR     64  39  39 W6        30.06R
PAGE           CLEAR     62  24  23 W12G24    30.05R
$$

AZZ009>014-017-020400-
NORTHEAST ARIZONA

CITY           SKY/WX    TMP DP  RH WIND       PRES   REMARKS
WINSLOW        CLEAR     61  39  44 W7        30.01R
SAINT JOHNS    LGT RAIN  64  38  38 W17G23    30.04R
SHOW LOW       PTCLDY    55  36  47 SW7       30.11R
$$

AZZ023-020400-
GREATER PHOENIX AREA

CITY           SKY/WX    TMP DP  RH WIND       PRES   REMARKS
PHOENIX        CLEAR     84  44  24 CALM      29.79R
BUCKEYE          N/A     77  45  31 SE3       29.81R
GLENDALE       PTCLDY    81  45  28 S6        29.81R
LUKE AFB       CLEAR     78  51  38 S5        29.79R
DEER VALLEY    CLEAR     79  45  29 CALM      29.82R
SCOTTSDALE     CLEAR     81  44  27 CALM      29.83R
MESA-FALCON    CLEAR     81  41  24 W7        29.81R
MESA-GATEWAY   PTCLDY    75  50  41 CALM      29.84R
CHANDLER       CLEAR     79  46  31 CALM      29.81R
$$

AZZ027-028-020400-
SOUTHWEST MARICOPA COUNTY AND PINAL COUNTY

CITY           SKY/WX    TMP DP  RH WIND       PRES   REMARKS
CASA GRANDE    CLEAR     75  41  29 CALM      29.84R
$$

AZZ503-504-507>509-020400-
SOUTHEAST ARIZONA

CITY           SKY/WX    TMP DP  RH WIND       PRES   REMARKS
TUCSON         CLEAR     80  34  19 NW6       29.90R
DAVIS-MONTHAN  CLEAR     77  36  22 NW8       29.89R
RYAN FIELD       N/A     79  43  27 W6        29.90R
NOGALES        CLEAR     62  49  62 E3        29.98R
SIERRA VISTA   CLEAR     70  43  37 SW8       30.02R
DOUGLAS        CLEAR     65  44  46 W9        29.98R
SAFFORD        CLEAR     71  34  25 NW7       29.89R
$$

AZZ020-021-025-026-031-020400-
SOUTHWEST ARIZONA

CITY           SKY/WX    TMP DP  RH WIND       PRES   REMARKS
YUMA           CLEAR     88  45  22 NW5       29.76R
$$

CAZ031-033-041-043-047-048-061-020400-
SOUTHERN CALIFORNIA

CITY           SKY/WX    TMP DP  RH WIND       PRES   REMARKS
DOWNTOWN L.A.  CLEAR     69  62  78 W5        29.82R
L.A. AIRPORT   PTCLDY    67  63  87 W8        29.83R
SAN DIEGO      PTCLDY    70  62  76 N5        29.85R
BURBANK        CLEAR     73  60  63 SE6       29.82R
ONTARIO        CLEAR     75  59  57 W7        29.84R
RIVERSIDE      CLEAR     75  58  55 W3        29.84R
PALM SPRINGS   CLEAR     92  34  13 NW7       29.81R
EL CENTRO NAS  CLEAR     82  31  15 SW3       29.75R
IMPERIAL       CLEAR     83  41  22 W3        29.75R
BLYTHE         CLEAR     86  45  23 CALM      29.78R
NEEDLES        CLEAR     84  28  13 N12       29.86R
$$

NVZ020-UTZ003-020400-
SOUTHERN NEVADA-UTAH

CITY           SKY/WX    TMP DP  RH WIND       PRES   REMARKS
LAS VEGAS      CLEAR     76  14   9 NE10      29.95R
SALT LAKE CITY PTCLDY    47  38  71 S7        30.18R
$$

NMZ009-TXZ055-020400-
NEW MEXICO-WEST TEXAS

CITY           SKY/WX    TMP DP  RH WIND       PRES   REMARKS
ALBUQUERQUE    MOCLDY    70  29  21 NW12      29.95R
EL PASO        CLEAR     79  36  21 W8        29.90R
$$


........................KEY........................
SKY/WX - SKY CONDITION/WEATHER
TMP    - TEMPERATURE IN FAHRENHEIT
DP     - DEW POINT IN FAHRENHEIT
RH     - RELATIVE HUMIDITY IN PERCENT
WIND   - DIRECTION AND SPEED IN MILES PER HOUR (MPH)
VRB    - VARIABLE WIND DIRECTION
PRES   - MEAN SEA LEVEL PRESSURE IN INCHES OF MERCURY
         F - FALLING PRESSURE   R - RISING PRESSURE
         S - STEADY PRESSURE
VSB    - VISIBILITY IN MILES
HX     - HEAT INDEX IN FAHRENHEIT
WCI    - WIND CHILL INDEX IN FAHRENHEIT
TC     - TEMPERATURE IN CELSIUS WHICH IS ALSO KNOWN AS
         TEMPERATURE IN CENTIGRADE
AFB    - AIR FORCE BASE
         LUKE AFB IS LUKE AIR FORCE BASE
         DAVIS-MONTHAN IS DAVIS-MONTHAN AIR FORCE BASE
NAS    - NAVAL AIR STATION
         EL CENTRO NAS IS EL CENTRO NAVAL AIR STATION
N/A    - NOT AVAILABLE


USA.gov is the U.S. government's official web portal to all federal, state and local government web resources and services.